Flag for Russia Weather past 2 weeks in Khanty-Mansiysk, Russia

Now
52 °F

Broken clouds.


Feels Like: 48 °F
Forecast: 42 / 47 °F
Wind: 10 mph from South

Location: Hanty-Mansijsk

Current Time: Oct 2, 2014 at 3:00:22 PM

Latest Report: Oct 2, 2014 at 2:30 PM


Visibility: N/A

Pressure: 29.65 "Hg

Humidity: 77%

Dew point: 45 °F

Location of Khanty-MansiyskLocation

Historic Weather in Khanty-Mansiysk — Graph

°F

Khanty-Mansiysk temperature yesterday

Maximum temperature yesterday: 48 °F (at 4:30 PM)
Minimum temperature yesterday: 39 °F (at 8:30 AM)
Average temperature yesterday: 43 °F

Past Weeks' High & Low Weather Summary

 TemperatureHumidityPressure
High63 °F (Sep 23, 4:30 PM)100% (Sep 18, 7:30 AM)30.51 "Hg (Sep 18, 7:30 AM)
Low27 °F (Sep 26, 6:30 AM)32% (Sep 29, 2:00 PM)29.12 "Hg (Sep 18, 8:30 AM)
Average40 °F77%29.93 "Hg
* Reported Sep 17 2:00 PM — Oct 2 2:00 PM, Khanty-Mansiysk, Weather by CustomWeather, © 2014

Note: Actual official high and low records may vary slightly from our data, if they occured in-between our weather recording intervals... More about our weather records

Advertising

Khanty-Mansiysk weather history for previous 24 hours

 ConditionsComfort  
Time TempWeatherWind HumidityBarometerVisibility
2:00 PM
Oct 2
52 °FBroken clouds.10 mph77%29.65 "HgN/A
1:30 PM52 °FBroken clouds.8 mph77%29.65 "HgN/A
1:00 PM50 °FBroken clouds.6 mph88%29.65 "HgN/A
12:30 PM50 °FPartly sunny.8 mph88%29.65 "HgN/A
12:00 PM48 °FMostly cloudy.6 mph94%29.65 "HgN/A
11:30 AM48 °FMostly cloudy.8 mph94%29.62 "Hg6 mi
11:00 AM46 °FLight rain. Mostly cloudy.8 mph93%29.62 "Hg3 mi
10:30 AM46 °FMostly cloudy.6 mph93%29.62 "HgN/A
10:00 AM46 °FLight rain. Mostly cloudy.10 mph93%29.62 "Hg4 mi
9:30 AM46 °FLight rain. Mostly cloudy.10 mph93%29.62 "Hg2 mi
9:00 AM46 °FLight rain. Mostly cloudy.8 mph87%29.62 "Hg3 mi
8:30 AM46 °FLight rain. Mostly cloudy.10 mph87%29.62 "Hg3 mi
8:00 AM45 °FLight rain. Mostly cloudy.10 mph93%29.62 "Hg3 mi
7:30 AM45 °FLight rain. Mostly cloudy.13 mph93%29.62 "Hg4 mi
7:00 AM45 °FLight rain. Mostly cloudy.10 mph93%29.62 "Hg4 mi
6:30 AM45 °FLight rain. Mostly cloudy.13 mph93%29.62 "Hg4 mi
6:00 AM45 °FLight rain. Mostly cloudy.10 mph93%29.62 "Hg4 mi
5:30 AM45 °FLight rain. Mostly cloudy.13 mph93%29.65 "Hg4 mi
5:00 AM45 °FLight rain. Mostly cloudy.13 mph93%29.65 "Hg5 mi
4:30 AM45 °FLight rain. Mostly cloudy.10 mph93%29.65 "Hg4 mi
4:00 AM45 °FLight rain. Mostly cloudy.10 mph93%29.65 "Hg3 mi
3:30 AM43 °FLight rain. Mostly cloudy.8 mph93%29.68 "Hg3 mi
3:00 AM43 °FLight rain. Mostly cloudy.6 mph93%29.68 "Hg3 mi
2:30 AM43 °FLight rain. Mostly cloudy.6 mph93%29.71 "Hg3 mi
2:00 AM43 °FLight rain. Mostly cloudy.10 mph93%29.71 "Hg6 mi
1:30 AM43 °FLight rain. Mostly cloudy.8 mph93%29.71 "Hg6 mi
1:00 AM43 °FLight rain. Mostly cloudy.8 mph93%29.74 "Hg6 mi
12:30 AM43 °FLight rain. Mostly cloudy.8 mph93%29.74 "Hg6 mi
12:00 AM43 °FLight rain. Mostly cloudy.10 mph93%29.74 "HgN/A
11:30 PM
Oct 1
43 °FMostly cloudy.10 mph93%29.74 "Hg6 mi
11:00 PM43 °FMostly cloudy.8 mph93%29.77 "HgN/A
10:30 PM43 °FMostly cloudy.8 mph87%29.77 "HgN/A
10:00 PM43 °FMostly cloudy.8 mph87%29.77 "HgN/A
9:30 PM43 °FMostly cloudy.8 mph93%29.77 "HgN/A
9:00 PM43 °FMostly cloudy.8 mph93%29.77 "HgN/A
8:30 PM45 °FMostly cloudy.8 mph87%29.80 "HgN/A
8:00 PM45 °FMostly cloudy.10 mph87%29.80 "HgN/A
7:30 PM45 °FMostly cloudy.8 mph87%29.80 "HgN/A
7:00 PM45 °FMore clouds than sun.6 mph93%29.80 "HgN/A
6:30 PM46 °FMostly cloudy.8 mph87%29.80 "HgN/A
6:00 PM46 °FMostly cloudy.8 mph87%29.80 "HgN/A
5:30 PM48 °FMostly cloudy.8 mph82%29.80 "HgN/A
5:00 PM48 °FMostly cloudy.6 mph87%29.80 "HgN/A
4:30 PM48 °FMostly cloudy.6 mph82%29.80 "HgN/A
4:00 PM46 °FMostly cloudy.3 mph87%29.80 "HgN/A
3:30 PM46 °FMostly cloudy.6 mph87%29.80 "HgN/A
3:00 PM46 °FMostly cloudy.6 mph87%29.80 "HgN/A
Weather by CustomWeather, © 2014

See weather overviewHow to use our weather pages